TimeCST,TemperatureF,Dew PointF,Humidity,Sea Level PressureIn,VisibilityMPH,Wind Direction,Wind SpeedMPH,Gust SpeedMPH,PrecipitationIn,Events,Conditions,WindDirDegrees,DateUTC
12:53 AM,39.0,30.9,73,30.25,10.0,Calm,Calm,-,N/A,,Clear,0,2013-03-07 06:53:00
1:53 AM,41.0,28.0,60,30.26,10.0,SE,3.5,-,N/A,,Clear,140,2013-03-07 07:53:00
2:53 AM,39.9,28.0,63,30.25,10.0,SE,3.5,-,N/A,,Clear,130,2013-03-07 08:53:00
3:53 AM,39.0,30.0,70,30.27,10.0,Calm,Calm,-,N/A,,Clear,0,2013-03-07 09:53:00
4:53 AM,39.0,30.0,70,30.28,10.0,SE,3.5,-,N/A,,Clear,130,2013-03-07 10:53:00
5:53 AM,37.9,30.0,73,30.30,10.0,Calm,Calm,-,N/A,,Clear,0,2013-03-07 11:53:00
6:53 AM,37.0,28.9,73,30.32,10.0,Calm,Calm,-,N/A,,Clear,0,2013-03-07 12:53:00
7:53 AM,41.0,30.0,65,30.33,10.0,Calm,Calm,-,N/A,,Clear,0,2013-03-07 13:53:00
8:53 AM,45.0,28.0,52,30.33,10.0,Variable,3.5,-,N/A,,Clear,0,2013-03-07 14:53:00
9:53 AM,48.0,27.0,44,30.33,10.0,Variable,4.6,-,N/A,,Clear,0,2013-03-07 15:53:00
10:53 AM,51.1,28.0,41,30.32,10.0,SSE,8.1,-,N/A,,Clear,160,2013-03-07 16:53:00
11:53 AM,54.0,28.9,38,30.31,10.0,Variable,4.6,-,N/A,,Clear,0,2013-03-07 17:53:00
12:53 PM,57.0,27.0,32,30.27,10.0,Calm,Calm,-,N/A,,Clear,0,2013-03-07 18:53:00
1:53 PM,60.1,28.0,30,30.24,10.0,Calm,Calm,-,N/A,,Clear,0,2013-03-07 19:53:00
2:53 PM,61.0,28.0,29,30.22,10.0,Variable,6.9,-,N/A,,Clear,0,2013-03-07 20:53:00
3:53 PM,61.0,27.0,27,30.20,10.0,SE,8.1,-,N/A,,Clear,140,2013-03-07 21:53:00
4:53 PM,61.0,28.0,29,30.19,10.0,Variable,4.6,-,N/A,,Clear,0,2013-03-07 22:53:00
5:53 PM,57.0,30.9,37,30.20,10.0,ESE,4.6,-,N/A,,Clear,120,2013-03-07 23:53:00
6:53 PM,53.1,30.0,41,30.21,10.0,SE,3.5,-,N/A,,Clear,130,2013-03-08 00:53:00
7:53 PM,48.9,30.9,50,30.20,10.0,Calm,Calm,-,N/A,,Clear,0,2013-03-08 01:53:00
8:53 PM,48.0,32.0,54,30.21,10.0,ESE,3.5,-,N/A,,Clear,120,2013-03-08 02:53:00
9:53 PM,48.9,30.9,50,30.22,10.0,Calm,Calm,-,N/A,,Clear,0,2013-03-08 03:53:00
10:53 PM,46.0,32.0,58,30.23,10.0,ESE,3.5,-,N/A,,Clear,120,2013-03-08 04:53:00
11:53 PM,46.0,32.0,58,30.23,10.0,ESE,3.5,-,N/A,,Clear,120,2013-03-08 05:53:00